| time (UTC) | temp F | wind direction | speed MPH | gust MPH | rain 1hr in | rain 24hr in | rain mn in | humidity % | barometer mb |
| 20260506211602 | 49 | 299 | 0.0 | 3.0 | 0.01 | 1.28 | 1.23 | 95 | 1011.9 |
| 20260506210043 | 49 | 126 | 0.0 | 1.0 | 0.01 | 1.28 | 1.23 | 94 | 1011.8 |
| 20260506204546 | 49 | 126 | 0.0 | 3.0 | 0.00 | 1.27 | 1.22 | 95 | 1011.7 |
| 20260506203041 | 49 | 125 | 2.0 | 4.0 | 0.00 | 1.27 | 1.22 | 95 | 1011.5 |
| 20260506201550 | 49 | 99 | 2.0 | 3.0 | 0.00 | 1.27 | 1.22 | 94 | 1011.5 |
| 20260506200034 | 49 | 61 | 1.0 | 3.0 | 0.00 | 1.27 | 1.22 | 94 | 1011.4 |
| 20260506194533 | 50 | 94 | 1.0 | 3.0 | 0.05 | 1.28 | 1.22 | 94 | 1011.4 |
| 20260506193031 | 50 | 49 | 1.0 | 3.0 | 0.13 | 1.28 | 1.22 | 94 | 1011.4 |
| 20260506191556 | 50 | 118 | 1.0 | 5.0 | 0.17 | 1.28 | 1.22 | 94 | 1011.2 |
| 20260506190055 | 50 | 224 | 2.0 | 6.0 | 0.18 | 1.28 | 1.22 | 94 | 1011.0 |
| 20260506184606 | 50 | 147 | 2.0 | 7.0 | 0.13 | 1.27 | 1.17 | 93 | 1010.9 |
| 20260506183057 | 50 | 238 | 3.0 | 7.0 | 0.06 | 1.18 | 1.09 | 92 | 1011.0 |
| 20260506181543 | 50 | 39 | 3.0 | 6.0 | 0.02 | 1.13 | 1.05 | 91 | 1010.7 |
| 20260506180047 | 51 | 22 | 3.0 | 7.0 | 0.01 | 1.12 | 1.04 | 90 | 1010.4 |
| 20260506174542 | 52 | 15 | 5.0 | 8.0 | 0.01 | 1.15 | 1.04 | 88 | 1010.2 |
| 20260506173048 | 53 | 351 | 9.0 | 14.0 | 0.00 | 1.14 | 1.03 | 84 | 1010.0 |
| 20260506171540 | 56 | 307 | 4.0 | 8.0 | 0.00 | 1.14 | 1.03 | 79 | 1009.7 |
| 20260506170055 | 58 | 348 | 2.0 | 5.0 | 0.00 | 1.14 | 1.03 | 76 | 1009.5 |
| 20260506164538 | 59 | 217 | 0.0 | 3.0 | 0.00 | 1.14 | 1.03 | 74 | 1009.3 |
| 20260506163039 | 59 | 182 | 3.0 | 6.0 | 0.00 | 1.14 | 1.03 | 72 | 1009.1 |
| 20260506161540 | 60 | 216 | 2.0 | 4.0 | 0.00 | 1.14 | 1.03 | 71 | 1009.2 |
| 20260506160040 | 61 | 171 | 3.0 | 7.0 | 0.00 | 1.14 | 1.03 | 69 | 1009.2 |
| 20260506154534 | 60 | 169 | 4.0 | 9.0 | 0.00 | 1.14 | 1.03 | 70 | 1009.1 |
| 20260506153029 | 59 | 153 | 2.0 | 7.0 | 0.00 | 1.14 | 1.03 | 74 | 1009.1 |
| 20260506151529 | 59 | 115 | 4.0 | 8.0 | 0.00 | 1.14 | 1.03 | 78 | 1009.2 |
| 20260506150027 | 59 | 151 | 5.0 | 10.0 | 0.00 | 1.14 | 1.03 | 76 | 1009.3 |
| 20260506144524 | 58 | 191 | 4.0 | 9.0 | 0.00 | 1.15 | 1.03 | 79 | 1009.3 |
| 20260506143030 | 58 | 144 | 6.0 | 11.0 | 0.00 | 1.15 | 1.03 | 81 | 1009.3 |
| 20260506141520 | 57 | 161 | 5.0 | 9.0 | 0.00 | 1.15 | 1.03 | 84 | 1009.6 |
| 20260506140017 | 56 | 160 | 3.0 | 9.0 | 0.00 | 1.15 | 1.03 | 87 | 1009.7 |
| 20260506134513 | 54 | 155 | 4.0 | 10.0 | 0.00 | 1.27 | 1.03 | 89 | 1009.8 |
| 20260506133012 | 54 | 144 | 5.0 | 12.0 | 0.00 | 1.27 | 1.03 | 89 | 1009.9 |
| 20260506131512 | 54 | 130 | 6.0 | 12.0 | 0.00 | 1.27 | 1.03 | 89 | 1010.0 |
| 20260506130014 | 54 | 197 | 5.0 | 12.0 | 0.00 | 1.27 | 1.03 | 91 | 1010.0 |
| 20260506124510 | 54 | 169 | 6.0 | 12.0 | 0.00 | 1.27 | 1.03 | 90 | 1009.9 |
| 20260506123010 | 55 | 146 | 6.0 | 10.0 | 0.00 | 1.27 | 1.03 | 91 | 1009.8 |
| 20260506121510 | 55 | 149 | 3.0 | 9.0 | 0.01 | 1.27 | 1.03 | 91 | 1009.9 |
| 20260506120008 | 55 | 199 | 5.0 | 10.0 | 0.01 | 1.27 | 1.03 | 92 | 1010.0 |
| 20260506114506 | 54 | 196 | 5.0 | 10.0 | 0.01 | 1.27 | 1.03 | 94 | 1010.0 |
| 20260506113007 | 52 | 180 | 5.0 | 11.0 | 0.01 | 1.26 | 1.02 | 95 | 1010.1 |
| 20260506111503 | 51 | 178 | 5.0 | 12.0 | 0.02 | 1.26 | 1.02 | 95 | 1010.2 |
| 20260506110002 | 52 | 159 | 5.0 | 13.0 | 0.05 | 1.26 | 1.02 | 96 | 1010.2 |
| 20260506104601 | 51 | 144 | 4.0 | 7.0 | 0.07 | 1.26 | 1.02 | 96 | 1010.2 |
| 20260506103105 | 50 | 162 | 3.0 | 9.0 | 0.09 | 1.25 | 1.02 | 96 | 1010.2 |
| 20260506101553 | 50 | 184 | 4.0 | 10.0 | 0.13 | 1.24 | 1.01 | 96 | 1010.1 |
| 20260506100051 | 50 | 146 | 3.0 | 7.0 | 0.13 | 1.21 | 0.98 | 95 | 1010.0 |
| 20260506094550 | 50 | 176 | 4.0 | 9.0 | 0.14 | 1.19 | 0.95 | 95 | 1009.9 |
| 20260506093047 | 50 | 167 | 5.0 | 8.0 | 0.14 | 1.15 | 0.92 | 96 | 1009.8 |
| 20260506091547 | 50 | 180 | 4.0 | 9.0 | 0.13 | 1.11 | 0.87 | 95 | 1009.6 |
| 20260506090050 | 50 | 181 | 4.0 | 10.0 | 0.13 | 1.08 | 0.84 | 95 | 1009.3 |
| 20260506084559 | 50 | 163 | 4.0 | 7.0 | 0.13 | 1.06 | 0.81 | 95 | 1009.2 |
| 20260506083043 | 50 | 175 | 3.0 | 6.0 | 0.14 | 1.03 | 0.78 | 95 | 1008.9 |
| 20260506081542 | 50 | 200 | 2.0 | 6.0 | 0.15 | 1.00 | 0.75 | 95 | 1008.8 |
| 20260506073035 | 51 | 219 | 2.0 | 7.0 | 0.18 | 0.89 | 0.64 | 96 | 1008.3 |
| 20260506071535 | 51 | 197 | 3.0 | 7.0 | 0.19 | 0.85 | 0.60 | 96 | 1008.1 |
| 20260506061545 | 51 | 213 | 5.0 | 10.0 | 0.19 | 0.67 | 0.41 | 95 | 1007.2 |
| 20260506044524 | 51 | 226 | 0.0 | 3.0 | 0.15 | 0.43 | 0.17 | 95 | 1006.6 |
| 20260506043035 | 51 | 192 | 0.0 | 3.0 | 0.13 | 0.40 | 0.13 | 95 | 1006.7 |
| 20260506041521 | 51 | 181 | 2.0 | 4.0 | 0.09 | 0.36 | 0.09 | 94 | 1006.7 |
| 20260506040019 | 51 | 173 | 3.0 | 4.0 | 0.04 | 0.31 | 0.05 | 94 | 1006.9 |
| 20260506034517 | 51 | 210 | 1.0 | 3.0 | 0.01 | 0.30 | 0.02 | 94 | 1006.9 |
| 20260506033018 | 51 | 202 | 1.0 | 3.0 | 0.00 | 0.28 | 0.01 | 94 | 1006.8 |
| 20260506031515 | 51 | 200 | 2.0 | 4.0 | 0.00 | 0.28 | 0.01 | 94 | 1006.8 |
| 20260506030019 | 51 | 175 | 1.0 | 3.0 | 0.00 | 0.28 | 0.01 | 94 | 1006.8 |
| 20260506024532 | 51 | 158 | 0.0 | 3.0 | 0.00 | 0.37 | 0.01 | 94 | 1007.1 |
| 20260506023014 | 51 | 155 | 1.0 | 3.0 | 0.00 | 0.37 | 0.01 | 94 | 1007.3 |
| 20260506021512 | 51 | 165 | 0.0 | 0.0 | 0.00 | 0.37 | 0.01 | 94 | 1007.2 |
| 20260506020011 | 52 | 165 | 0.0 | 0.0 | 0.00 | 0.37 | 0.01 | 94 | 1007.2 |
| 20260506014510 | 52 | 165 | 0.0 | 0.0 | 0.00 | 0.40 | 0.01 | 94 | 1007.2 |
| 20260506013006 | 52 | 165 | 1.0 | 4.0 | 0.00 | 0.40 | 0.01 | 94 | 1007.5 |
| 20260506011506 | 52 | 174 | 2.0 | 5.0 | 0.01 | 0.40 | 0.01 | 94 | 1007.8 |
| 20260506010006 | 52 | 194 | 2.0 | 6.0 | 0.01 | 0.47 | 0.01 | 94 | 1007.9 |
| 20260506004505 | 52 | 188 | 1.0 | 6.0 | 0.01 | 0.47 | 0.01 | 94 | 1008.1 |
| 20260506003100 | 52 | 194 | 2.0 | 5.0 | 0.01 | 0.47 | 0.01 | 93 | 1008.2 |
| 20260506001558 | 52 | 195 | 2.0 | 7.0 | 0.00 | 0.46 | 0.00 | 93 | 1008.4 |
| 20260506000055 | 52 | 213 | 2.0 | 6.0 | 0.00 | 0.46 | 0.00 | 93 | 1008.7 |
| 20260505234606 | 52 | 222 | 3.0 | 9.0 | 0.00 | 0.56 | 0.00 | 93 | 1008.8 |
| 20260505233052 | 52 | 184 | 3.0 | 7.0 | 0.00 | 0.56 | 0.00 | 92 | 1008.6 |
| 20260505231604 | 53 | 148 | 2.0 | 7.0 | 0.00 | 0.56 | 0.00 | 92 | 1008.6 |
| 20260505230051 | 53 | 150 | 3.0 | 8.0 | 0.00 | 0.56 | 0.00 | 92 | 1008.8 |
| 20260505224545 | 53 | 181 | 4.0 | 9.0 | 0.01 | 0.56 | 0.00 | 93 | 1009.1 |
| 20260505223040 | 54 | 147 | 2.0 | 6.0 | 0.04 | 0.56 | 0.00 | 94 | 1009.4 |
| 20260505221539 | 54 | 178 | 0.0 | 3.0 | 0.05 | 0.56 | 0.00 | 93 | 1009.7 |
| 20260505220038 | 54 | 258 | 0.0 | 3.0 | 0.05 | 0.56 | 0.00 | 93 | 1010.0 |
| 20260505214558 | 54 | 232 | 3.0 | 9.0 | 0.04 | 0.56 | 0.56 | 92 | 1009.9 |
| 20260505213033 | 56 | 220 | 6.0 | 13.0 | 0.01 | 0.53 | 0.53 | 88 | 1009.8 |